When you browse on this site, cookies collect data to enhance your experience and personalize the content and advertising you see.
Visit our Privacy Policy to learn more. By continuing to use the site, you agree to this use of cookies and data.
  • en France
  • Liste des pays
  • À 7 jours
  • Température de l'eau
  • Carte météo
  • Widgets météo
  • user-avatar
    Se connecter

    Météo par heure à North-Horr

    Ce jour, 30 Mars, Lundi

    Heure Température Précipitation Vent Pression Humidité
    00:00 +34°C° 0 mm 7 m/s 723 mmHg 50%
    01:00 +33°C° 0 mm 7 m/s 723 mmHg 52%
    02:00 +33°C° 0 mm 6 m/s 723 mmHg 51%
    03:00 +33°C° 0.2 mm 6 m/s 723 mmHg 53%
    04:00 +32°C° 0.2 mm 6 m/s 723 mmHg 54%
    05:00 +32°C° 0.2 mm 5 m/s 723 mmHg 56%
    06:00 +33°C° 0 mm 6 m/s 724 mmHg 53%
    07:00 +34°C° 0 mm 6 m/s 725 mmHg 49%
    08:00 +35°C° 0 mm 6 m/s 726 mmHg 46%
    09:00 +36°C° 0 mm 6 m/s 725 mmHg 43%
    10:00 +38°C° 0 mm 6 m/s 725 mmHg 39%
    11:00 +39°C° 0 mm 6 m/s 724 mmHg 35%
    12:00 +39°C° 0 mm 6 m/s 724 mmHg 34%
    13:00 +40°C° 0 mm 5 m/s 723 mmHg 33%
    14:00 +40°C° 0 mm 5 m/s 722 mmHg 31%
    15:00 +40°C° 0 mm 6 m/s 722 mmHg 32%
    16:00 +40°C° 0 mm 6 m/s 722 mmHg 33%
    17:00 +39°C° 0 mm 7 m/s 721 mmHg 34%
    18:00 +39°C° 0 mm 7 m/s 722 mmHg 36%
    19:00 +38°C° 0 mm 7 m/s 722 mmHg 39%
    20:00 +37°C° 0 mm 8 m/s 723 mmHg 41%
    21:00 +35°C° 0 mm 7 m/s 723 mmHg 43%
    22:00 +35°C° 0 mm 7 m/s 723 mmHg 45%
    23:00 +34°C° 0 mm 7 m/s 723 mmHg 48%

    Demain, 31 Mars, Mardi

    Heure Température Précipitation Vent Pression Humidité
    00:00 +34°C° 0 mm 7 m/s 723 mmHg 49%
    01:00 +33°C° 0 mm 7 m/s 723 mmHg 50%
    02:00 +33°C° 0 mm 7 m/s 723 mmHg 51%
    03:00 +33°C° 0 mm 7 m/s 723 mmHg 52%
    04:00 +32°C° 0 mm 7 m/s 723 mmHg 53%
    05:00 +32°C° 0 mm 6 m/s 723 mmHg 55%
    06:00 +33°C° 0 mm 7 m/s 724 mmHg 53%
    07:00 +34°C° 0 mm 8 m/s 725 mmHg 50%
    08:00 +34°C° 0 mm 9 m/s 726 mmHg 48%
    09:00 +37°C° 0 mm 9 m/s 726 mmHg 44%
    10:00 +38°C° 0 mm 9 m/s 725 mmHg 39%
    11:00 +39°C° 0 mm 9 m/s 725 mmHg 35%
    12:00 +40°C° 0 mm 9 m/s 724 mmHg 33%
    13:00 +41°C° 0 mm 8 m/s 724 mmHg 31%
    14:00 +41°C° 0 mm 8 m/s 723 mmHg 28%
    15:00 +40°C° 0 mm 8 m/s 723 mmHg 31%
    16:00 +40°C° 0 mm 9 m/s 722 mmHg 34%
    17:00 +39°C° 0 mm 9 m/s 722 mmHg 36%
    18:00 +38°C° 0 mm 9 m/s 723 mmHg 38%
    19:00 +38°C° 0 mm 8 m/s 724 mmHg 40%
    20:00 +37°C° 0 mm 8 m/s 724 mmHg 41%
    21:00 +37°C° 0 mm 8 m/s 724 mmHg 42%
    22:00 +35°C° 0 mm 7 m/s 724 mmHg 43%
    23:00 +35°C° 0 mm 7 m/s 724 mmHg 44%

    Après-demain, 1 Avril, Mercredi

    Heure Température Précipitation Vent Pression Humidité
    00:00 +34°C° 0 mm 7 m/s 724 mmHg 46%
    01:00 +34°C° 0 mm 6 m/s 724 mmHg 47%
    02:00 +34°C° 0 mm 6 m/s 724 mmHg 48%
    03:00 +33°C° 0 mm 6 m/s 724 mmHg 50%
    04:00 +33°C° 0 mm 5 m/s 724 mmHg 52%
    05:00 +32°C° 0 mm 5 m/s 724 mmHg 54%
    06:00 +33°C° 0 mm 6 m/s 725 mmHg 50%
    07:00 +34°C° 0 mm 6 m/s 725 mmHg 47%
    08:00 +35°C° 0 mm 7 m/s 726 mmHg 43%
    09:00 +38°C° 0 mm 7 m/s 726 mmHg 39%
    10:00 +39°C° 0 mm 8 m/s 726 mmHg 34%
    11:00 +40°C° 0 mm 8 m/s 726 mmHg 30%
    12:00 +40°C° 0 mm 8 m/s 725 mmHg 30%
    13:00 +40°C° 0 mm 8 m/s 724 mmHg 30%
    14:00 +40°C° 0 mm 7 m/s 723 mmHg 30%
    15:00 +40°C° 0 mm 8 m/s 723 mmHg 30%
    16:00 +40°C° 0 mm 8 m/s 723 mmHg 31%
    17:00 +39°C° 0 mm 8 m/s 722 mmHg 32%
    18:00 +39°C° 0 mm 9 m/s 723 mmHg 34%
    19:00 +38°C° 0 mm 9 m/s 723 mmHg 37%
    20:00 +37°C° 0 mm 9 m/s 724 mmHg 40%
    21:00 +35°C° 0 mm 8 m/s 724 mmHg 41%
    22:00 +35°C° 0 mm 8 m/s 724 mmHg 43%
    23:00 +34°C° 0 mm 7 m/s 724 mmHg 45%

    2 Avril, Jeudi

    Heure Température Précipitation Vent Pression Humidité
    00:00 +34°C° 0 mm 7 m/s 723 mmHg 46%
    01:00 +34°C° 0 mm 6 m/s 723 mmHg 48%
    02:00 +33°C° 0 mm 6 m/s 722 mmHg 50%
    03:00 +33°C° 0 mm 5 m/s 723 mmHg 50%
    04:00 +32°C° 0 mm 5 m/s 723 mmHg 51%
    05:00 +32°C° 0 mm 4 m/s 723 mmHg 52%
    06:00 +33°C° 0 mm 5 m/s 724 mmHg 48%
    07:00 +34°C° 0 mm 5 m/s 725 mmHg 45%
    08:00 +35°C° 0 mm 6 m/s 725 mmHg 41%
    09:00 +36°C° 0 mm 6 m/s 725 mmHg 38%
    10:00 +38°C° 0 mm 7 m/s 725 mmHg 35%
    11:00 +39°C° 0 mm 7 m/s 724 mmHg 32%
    12:00 +40°C° 0 mm 7 m/s 723 mmHg 32%
    13:00 +40°C° 0 mm 7 m/s 723 mmHg 32%
    14:00 +40°C° 0 mm 7 m/s 722 mmHg 31%
    15:00 +40°C° 0 mm 7 m/s 722 mmHg 32%
    16:00 +40°C° 0 mm 8 m/s 722 mmHg 33%
    17:00 +39°C° 0 mm 9 m/s 722 mmHg 34%
    18:00 +39°C° 0 mm 8 m/s 722 mmHg 35%
    19:00 +38°C° 0 mm 8 m/s 722 mmHg 37%
    20:00 +37°C° 0 mm 8 m/s 723 mmHg 38%
    21:00 +37°C° 0 mm 8 m/s 723 mmHg 41%
    22:00 +35°C° 0 mm 8 m/s 723 mmHg 43%
    23:00 +35°C° 0 mm 8 m/s 723 mmHg 46%

    3 Avril, Vendredi

    Heure Température Précipitation Vent Pression Humidité
    00:00 +34°C° 0 mm 7 m/s 723 mmHg 46%
    01:00 +34°C° 0 mm 6 m/s 722 mmHg 47%
    02:00 +33°C° 0 mm 6 m/s 722 mmHg 48%
    03:00 +33°C° 0 mm 5 m/s 722 mmHg 49%
    04:00 +33°C° 0 mm 4 m/s 722 mmHg 49%
    05:00 +32°C° 0 mm 4 m/s 723 mmHg 50%
    06:00 +33°C° 0 mm 5 m/s 723 mmHg 47%
    07:00 +34°C° 0 mm 6 m/s 724 mmHg 44%
    08:00 +35°C° 0 mm 8 m/s 725 mmHg 42%
    09:00 +37°C° 0 mm 8 m/s 725 mmHg 39%
    10:00 +38°C° 0 mm 8 m/s 724 mmHg 36%
    11:00 +40°C° 0 mm 8 m/s 724 mmHg 33%
    12:00 +40°C° 0 mm 8 m/s 723 mmHg 33%
    13:00 +40°C° 0 mm 8 m/s 723 mmHg 32%
    14:00 +40°C° 0 mm 7 m/s 722 mmHg 32%
    15:00 +40°C° 0 mm 8 m/s 722 mmHg 34%
    16:00 +39°C° 0 mm 9 m/s 722 mmHg 36%
    17:00 +39°C° 0 mm 9 m/s 722 mmHg 37%
    18:00 +38°C° 0 mm 9 m/s 722 mmHg 39%
    19:00 +37°C° 0 mm 9 m/s 723 mmHg 40%
    20:00 +37°C° 0 mm 9 m/s 723 mmHg 41%
    21:00 +35°C° 0 mm 9 m/s 723 mmHg 41%
    22:00 +35°C° 0 mm 8 m/s 723 mmHg 41%
    23:00 +35°C° 0 mm 8 m/s 723 mmHg 40%

    4 Avril, Samedi

    Heure Température Précipitation Vent Pression Humidité
    00:00 +34°C° 0 mm 7 m/s 723 mmHg 41%
    01:00 +34°C° 0 mm 7 m/s 723 mmHg 42%
    02:00 +34°C° 0 mm 6 m/s 722 mmHg 43%
    03:00 +33°C° 0 mm 6 m/s 723 mmHg 44%
    04:00 +33°C° 0 mm 6 m/s 723 mmHg 44%
    05:00 +32°C° 0 mm 6 m/s 723 mmHg 45%
    06:00 +33°C° 0 mm 7 m/s 724 mmHg 46%
    07:00 +33°C° 0 mm 8 m/s 725 mmHg 47%
    08:00 +34°C° 0 mm 10 m/s 725 mmHg 48%
    09:00 +37°C° 0 mm 9 m/s 725 mmHg 43%
    10:00 +38°C° 0 mm 9 m/s 725 mmHg 38%
    11:00 +39°C° 0 mm 9 m/s 725 mmHg 34%
    12:00 +40°C° 0 mm 8 m/s 724 mmHg 32%
    13:00 +40°C° 0 mm 8 m/s 723 mmHg 31%
    14:00 +41°C° 0 mm 8 m/s 723 mmHg 29%
    15:00 +40°C° 0 mm 8 m/s 723 mmHg 31%
    16:00 +40°C° 0 mm 9 m/s 723 mmHg 32%
    17:00 +39°C° 0 mm 10 m/s 722 mmHg 34%
    18:00 +38°C° 0 mm 10 m/s 723 mmHg 37%
    19:00 +37°C° 0 mm 10 m/s 723 mmHg 41%
    20:00 +36°C° 0 mm 10 m/s 724 mmHg 44%
    21:00 +36°C° 0 mm 10 m/s 724 mmHg 45%
    22:00 +34°C° 0 mm 9 m/s 724 mmHg 46%
    23:00 +34°C° 0 mm 9 m/s 724 mmHg 47%
    Voir plus